Flight Track Log - Related Links

Times and Time Zones

All times are in EDT time to prevent confusion due to time zone crossing. See the UAL4849 flight status page for this flight to view local times or setup timezone preferences in your user account.

Time Position Orientation Groundspeed Altitude Reporting Facility
EDT Latitude Longitude Course Direction KTS MPH feet Rate Location/Type
10:59AM 43.1036 -77.6914 190° South 106 122 1,200  Level Cleveland Center
11:00AM 43.0744 -77.6983 190° South 142 163 2,300 1,266 Climbing Cleveland Center
11:01AM 43.0481 -77.6369 120° Southeast 207 238 3,500 1,188 Climbing Cleveland Center
11:02AM 43.0319 -77.5867 114° Southeast 196 226 4,200 1,313 Climbing Cleveland Center
11:03AM 43.0097 -77.5253 116° Southeast 210 242 5,600 1,300 Climbing Cleveland Center
11:04AM 42.9847 -77.4500 114° Southeast 215 247 6,800 1,350 Climbing Cleveland Center
11:05AM 42.9575 -77.3744 116° Southeast 215 247 8,300 1,450 Climbing Cleveland Center
11:06AM 42.9325 -77.2992 114° Southeast 215 247 9,700 1,178 Climbing Cleveland Center
11:07AM 42.8875 -77.1756 116° Southeast 225 259 11,500 1,024 Climbing New York Center
11:08AM 42.8567 -77.0903 116° Southeast 236 272 12,500 848 Climbing New York Center
11:09AM 42.8333 -77.0247 116° Southeast 242 278 12,900 245 Climbing Boston Center
11:10AM 42.7953 -76.9314 119° Southeast 270 311 12,900  Level Boston Center
11:11AM 42.7511 -76.8347 122° Southeast 287 330 12,900  Level Boston Center
11:12AM 42.7069 -76.7356 121° Southeast 298 343 12,900  Level Boston Center
11:13AM 42.6647 -76.6394 121° Southeast 304 350 12,900  Level Boston Center
11:14AM 42.6222 -76.5433 121° Southeast 304 350 12,900 252 Level Boston Center
11:15AM 42.5817 -76.4531 121° Southeast 299 344 13,400 807 Climbing Boston Center
11:16AM 42.5450 -76.3689 121° Southeast 278 320 14,500 744 Climbing Boston Center
11:17AM 42.5064 -76.2819 121° Southeast 273 314 14,900 200 Climbing Boston Center
11:18AM 42.4772 -76.2183 122° Southeast 273 314 14,900  Level Boston Center
11:19AM 42.4267 -76.1056 121° Southeast 278 320 14,900  Level Boston Center
11:20AM 42.3817 -76.0100 122° Southeast 292 336 14,900  Level Boston Center
11:21AM 42.3369 -75.9119 122° Southeast 292 336 14,900  Level Boston Center
11:22AM 42.2958 -75.8197 121° Southeast 292 336 14,900  Level Boston Center
11:23AM 42.2489 -75.7133 121° Southeast 292 336 14,900  Level Boston Center
11:24AM 42.2058 -75.6158 121° Southeast 292 336 14,900  Level Boston Center
11:25AM 42.1606 -75.5239 124° Southeast 292 336 14,900 50 Level Boston Center
11:26AM 42.1172 -75.4267 121° Southeast 297 342 15,000 51 Climbing Boston Center
11:27AM 42.0739 -75.3322 122° Southeast 297 342 15,000 99 Level Boston Center
11:28AM 42.0306 -75.2325 120° Southeast 302 348 15,200 49 Climbing Boston Center
11:29AM 42.0011 -75.1528 116° Southeast 302 348 15,100 -99 Descending Boston Center
11:30AM 41.9539 -75.0308 117° Southeast 307 353 15,000 -45 Descending Boston Center
11:31AM 41.9164 -74.9428 120° Southeast 307 353 15,000 -1,053 Level Boston Center
11:32AM 41.8433 -74.8450 135° Southeast 289 333 12,700 -2,118 Descending Boston Center
11:33AM 41.7906 -74.7733 135° Southeast 272 313 10,800 -1,475 Descending Boston Center
11:34AM 41.7381 -74.7019 135° Southeast 267 307 9,700 -1,220 Descending Boston Center
11:35AM 41.6786 -74.6442 144° Southeast 267 307 8,400 -864 Descending Boston Center
11:36AM 41.6144 -74.6281 169° South 245 282 8,000 -148 Descending Boston Center
11:37AM 41.5542 -74.6178 173° South 231 266 8,100 -99 Climbing Boston Center
11:38AM 41.4981 -74.6075 172° South 226 260 7,800 -550 Descending Boston Center
11:39AM 41.4378 -74.5972 173° South 219 252 7,000 -703 Descending Boston Center
11:40AM 41.3667 -74.6000 182° South 204 235 6,300 -492 Descending New York TRACON
11:41AM 41.3333 -74.5667 143° Southeast 221 254 6,000 -158 Descending New York TRACON
11:42AM 41.2833 -74.5167 143° Southeast 216 249 6,000  Level New York TRACON
11:43AM 41.2333 -74.4667 143° Southeast 226 260 6,000 -365 Level New York TRACON
11:44AM 41.1833 -74.4167 143° Southeast 225 259 5,300 -496 Descending New York TRACON
11:45AM 41.1500 -74.3667 132° Southeast 195 224 5,000 -144 Descending New York TRACON
11:46AM 41.1000 -74.3333 153° Southeast 189 217 5,000  Level New York TRACON
11:47AM 41.0833 -74.2500 105° East 233 268 5,000  Level New York TRACON
11:48AM 41.0667 -74.2000 114° Southeast 202 232 5,000 -350 Level New York TRACON
11:49AM 41.0167 -74.1500 143° Southeast 189 217 4,300 -496 Descending New York TRACON
11:50AM 40.9667 -74.1167 153° Southeast 174 200 4,000 -500 Descending New York TRACON
11:51AM 40.9333 -74.0833 143° Southeast 174 200 3,300 -504 Descending New York TRACON
11:52AM 40.9000 -74.0667 159° South 159 183 3,000 -150 Descending New York TRACON
11:53AM 40.8500 -74.0667 180° South 152 175 3,000 -209 Level New York TRACON
11:54AM 40.8167 -74.0833 201° Southwest 149 171 2,600 -694 Descending New York TRACON
11:55AM 40.7667 -74.1167 207° Southwest 180 207 1,600 -909 Descending New York TRACON

Login

Don't have an account? Register now (free) for customized features, flight alerts, and more!